Showing default

OPS 9321 (IDSCS 8), 2645

Orbit data source: Space-Track

OPS 9321 (IDSCS 8), 2645 is a payload satellite owned by USAF SSD (US) in GEO that was launched on Wed, 18 Jan 1967 UTC via a TITAN IIIC launch vehicle from the Air Force Eastern Test Range (AFETR). Payloads include a variety of satellites, spacecraft, and rockets equipped with specific instruments for various scientific and technological missions. These include communications satellites like Starlink; space stations such as the ISS; scientific satellites like the Hubble; Earth observation satellites from companies like Planet Labs, Umbra, and HawkEye 360; GPS; miniature CubeSats for education and research; and military/defense satellites.

Not visible in the next 10 days
OPS 9321 (IDSCS 8) details
Identifier
2645, 1967-003A
Orbit
GEO
Last TLE update1 day ago
Origin
Flag of USUSAF SSD (US)
ManufacturerPhilco-Ford WDL
MissionNon-operational Defense Communications
Bus & MotorIDCSP, Unknown motor
Mass45 kg wet, 45 kg dry
Launch date (UTC)
1967-01-18 (58 years ago)
Launch vehicle
TITAN IIIC
Launch site
Air Force Eastern Test Range (AFETR)
Object type
Payload
Rocket body
Debris
Shape & HBRIco Poly, 0.9 m
Radar Cross Section0.926 m², Medium (>0.1 m² and < 1m²)

Expand to show TLE details & history

TLE from 1 day ago
0 OPS 9321 (IDSCS 8)
1 02645U 67003A   24355.08270752 -.00000107  00000-0  00000-0 0  9992
2 02645   7.3276  49.3793 0034723 109.3111 241.4222  1.08317303228559
Epoch: 2024-12-20T01:59Z
Definitive object data (Epoch: 2024-12-20T01:59:05.929Z)
Latitude-1.21586°
Longitude-79.08192°
Altitude33,737.88 km
Speed3.15 km/s
True Right ascension02h 39m 23s
True Declination-1° 12' 52"
Sunlit
Object was in daylight at TLE epoch
Visualization TLE readout
Latitude-3.38615°
Longitude137.68209°
Altitude33,691.512 km
Speed3.153 km/s
Apparent Right ascension17h 33m 45s
Apparent Declination-9° 28' 43"
Sunlit
Object is in daylight
Visualization observer readout
Local Sidereal Time12:29:10
Azimuth106.18° ESE
Elevation4.329°
Doppler factor1
Orbital elements
Apogee altitude33,812.1 km
Perigee altitude33,533.961 km
Semi-major axis40,051.168 km
Eccentricity0.0034723
Inclination7.3276°
RAAN49.3793°
Arg. of periapsis109.3111°
True anomaly241.07351°
Mean anomaly241.4222°
Eccentric anomaly241.24778°
Mean motion0.27078 °/min
BSTARUnknown
Orbital period1329.48 mins
Loading historical data...
2645 neighbors
Authenticating...
Loading maneuver chart data...
Loading historical data...
Loading historical data...
Loading historical data...
Loading historical data...
Loading historical data...
Loading historical data...
Loading historical data...

OPS 9321 (IDSCS 8) Visibility forecast

Observer location: undefined°, undefined

OPS 9321 (IDSCS 8) is not visible in the next 10 days
Span
Click to sort rows by Start time (UTC) header in descending order
Start Az.
Max El. time (UTC)
Max El. Az.
Max El.
End time (UTC)
End Az.
|